487  
ASUS41 KBGM 031510  
RWRBGM  
 
REGIONAL WEATHER ROUNDUP  
NATIONAL WEATHER SERVICE BINGHAMTON NY  
1100 AM EDT MON AUG 03 2020  
 
NOTE: "FAIR" INDICATES FEW OR NO CLOUDS BELOW 12,000 FEET WITH NO  
SIGNIFICANT WEATHER AND/OR S TO VISIBILITY
.  
 
* = STATION(S) THAT DOES NOT REPORT PRECIPITATION, SUCH AS RAIN,  
SNOW, ETC, ALSO NO THUNDER OR FOG.
 
 
NYZ009-015>018-022>025-036-037-044>046-055>057-062-031600   
..CENTRAL NEW YORK
 
 
 
CITY SKY/WX TMP DP RH WIND PRES REMARKS
 
BINGHAMTON PTSUNNY 72 60 66 W9 30.07R  
CORTLAND FAIR 72 57 60 W7 30.06R  
DANSVILLE MOSUNNY 78 62 57 NW9 30.04S  
ELMIRA PTSUNNY 77 61 57 W5 30.04S  
ENDICOTT CLOUDY 73 61 64 W7 30.05R  
ITHACA PTSUNNY 73 61 65 N3 30.06R  
HAMILTON MOSUNNY 72 59 64 NW7 30.05R  
MONTICELLO MOSUNNY 75 63 64 W12 30.09R  
NORWICH PTSUNNY 75 61 60 W6 30.04S  
ONEONTA SUNNY 72 59 64 W8 30.07R  
PENN YAN PTSUNNY 74 60 61 W6 30.05R  
ROME PTSUNNY 72 65 78 NW7 30.02R  
SENECA FALLS MOSUNNY 75 61 60 W7 30.04S  
SIDNEY PTSUNNY 75 61 60 W6 30.05S  
SKANEATELES CLOUDY 72 63 73 W8 30.05R  
SYRACUSE PTSUNNY 75 62 64 W14G20 30.02R  

 
 
PAZ038>040-043-044-047-048-072-031600   
..NORTHEAST PENNSYLVANIA
 
 
 
CITY SKY/WX TMP DP RH WIND PRES REMARKS
 
HAZLETON MOSUNNY 73 61 64 W5 30.13S  
SCRANTON PTSUNNY 78 62 57 VRB6 30.07R  
TOWANDA MOSUNNY 75 61 60 W5 30.06S  

 

 
KEY  
WCI = WIND CHILL INDEX  
VSB = VISIBILITY  
HX = HEAT INDEX  

 
 
 
CLICK HERE TO GO TO PREVIOUS BULLETINS.

The Nexlab NY Page
The Nexlab PA Page Main Text Page